Regional Weather Roundup
Issued by NWS

Home | Current Version | Previous Version | Text Only | Print | Product List | Glossary Off
Versions: 1 2 3 4 5 6 7 8 9 10 11 12 13 14 15 16 17 18 19 20 21 22 23 24 25 26 27 28 29 30 31 32 33 34 35 36 37 38 39 40 41 42 43 44 45 46 47 48 49 50

000
ASUS45 KTFX 032110
RWRMT
MONTANA REGIONAL WEATHER ROUNDUP
NATIONAL WEATHER SERVICE GREAT FALLS MT
300 PM MDT MON AUG 03 2015

NOTE: "FAIR" INDICATES FEW OR NO CLOUDS BELOW 12000 FEET WITH NO
SIGNIFICANT WEATHER AND/OR OBSTRUCTIONS TO VISIBILITY.

MTZ001>007-043-032200-
WEST OF THE DIVIDE

CITY           SKY/WX    TMP DP  RH WIND       PRES   REMARKS
KALISPELL      CLEAR     95  31  10 CALM      29.77F SMOKE
MISSOULA       PTSUNNY   91  38  15 W3        29.80F
BUTTE          MOSUNNY   86  39  19 SE8       29.98F
MULLAN PASS    PTSUNNY   75  28  17 VRB7      30.05R
DEER LODGE       N/A     90  37  15 CALM      29.93F
EUREKA           N/A     91  36  14 CALM      29.76F
HAMILTON         N/A     84  43  23 N8        29.83F
LIBBY            N/A     91  30  11 N3        29.76F
PLAINS           N/A     96  41  15 CALM      29.78F HX  91
RONAN            N/A     91  39  16 CALM      29.87F
$$

MTZ008-052>055-032200-
SOUTHWEST MONTANA

CITY           SKY/WX    TMP DP  RH WIND       PRES   REMARKS
BOZEMAN        PTSUNNY   84  50  30 CALM      29.93F
DILLON         CLOUDY    84  39  20 NW5       29.97F
W YELLOWSTONE  CLOUDY    72  46  40 SW10G17   30.16S
$$

MTZ009-010-012-014-046-048-049-054-032200-
EAST SLOPES AND CENTRAL MONTANA

CITY           SKY/WX    TMP DP  RH WIND       PRES   REMARKS
CUT BANK       MOSUNNY   91  40  16 SE10      29.87F
GREAT FALLS    SUNNY     91  45  20 E6        29.86F
MALMSTROM AFB  MOSUNNY   92  45  19 NE8G14    29.85F
HELENA         MOSUNNY   93  48  21 N9        29.85F
CONRAD           N/A     92  48  22 E6        29.91F
$$

MTZ011-013-016-021-045-047-050-051-032200-
NORTH CENTRAL MONTANA

CITY           SKY/WX    TMP DP  RH WIND       PRES   REMARKS
HAVRE          MOSUNNY   92  52  25 SE18G26   29.83F
LEWISTOWN      SUNNY     89  45  21 E18G28    29.94F
CHINOOK          N/A     88  54  31 E14G22    29.86F
FORT BENTON      N/A     93  48  21 E13G23      N/A  HX  90
$$

MTZ017>020-022>027-061-062-032200-
NORTHEAST MONTANA

CITY           SKY/WX    TMP DP  RH WIND       PRES   REMARKS
GLASGOW        SUNNY     87  47  24 E14       29.93F
JORDAN           N/A     90  45  21 E14G20    29.92F
SIDNEY         SUNNY    N/A N/A N/A N9        29.96F
WOLF POINT     SUNNY     88  47  24 VRB5      29.95F
MALTA            N/A     89  53  29 E10       29.88F
POPLAR           N/A     84  46  26 NE8       29.96F
SCOBEY           N/A     81  49  32 SE6       29.98F
$$

MTZ028>42-056>058-032200-
SOUTHCENTRAL AND SOUTHEAST MONTANA

CITY           SKY/WX    TMP DP  RH WIND       PRES   REMARKS
BAKER          SUNNY     86  47  25 SE10      29.99F
BILLINGS       PTSUNNY   90  46  21 SE12      29.93F
LIVINGSTON     PTSUNNY   86  44  23 E14       29.96F
MILES CITY     SUNNY     91  47  21 S12       29.91F
FORSYTH          N/A     90  45  20 E13       29.90F
LAUREL           N/A     89  49  25 E6        29.92F
ROUNDUP          N/A     91  43  18 E9        29.85F
$$

REGIONAL REPORTS...DAKOTAS

CITY           SKY/WX    TMP DP  RH WIND       PRES   REMARKS
WILLISTON      SUNNY     84  43  23 N8        29.98F
MINOT          SUNNY     78  42  27 SW5       29.98F
DICKINSON      SUNNY     81  48  31 VRB3      29.99F
BISMARCK       SUNNY     82  47  29 N12       29.98F
GRAND FORKS    MOSUNNY   77  49  37 NW12      29.91F
FARGO          SUNNY     80  46  30 N14G20    29.92F
BUFFALO SD       N/A     85  51  31 E10       29.93F
RAPID CITY     MOSUNNY   83  59  44 SE10G20   29.99
$$

REGIONAL REPORTS...WYOMING/IDAHO/WASHINGTON

CITY           SKY/WX    TMP DP  RH WIND       PRES   REMARKS
GILLETTE       PTSUNNY   84  52  33 VRB7      30.00F
SHERIDAN       CLOUDY    87  52  29 SE9       29.95F
BUFFALO WY     CLOUDY    83  52  34 SE13      30.04F
CODY           PTSUNNY   81  50  34 N9        30.01F
YELLOWSTONE LA   N/A     73  37  27 CALM      30.23S
IDAHO FALLS    CLOUDY    73  54  51 S16G26    30.07S
SALMON         CLOUDY    90  46  22 N9        29.81F
BOISE          CLOUDY    87  49  26 CALM      29.91F
SPOKANE        CLOUDY    86  41  20 SW7       29.83S
$$

REGIONAL REPORTS...ALBERTA

CITY           SKY/WX    TMP DP  RH WIND       PRES   REMARKS
EDMONTON       MOSUNNY   82  57  42 SE20      29.80F
CALGARY        CLOUDY    86  55  35 SE14      29.84F
LETHBRIDGE     MOSUNNY   90  48  24 SE10      29.82F
MEDICINE HAT   CLOUDY    95  43  16 VRB2      29.81F HX  91
WATERTON GATE    N/A     88  46  23 E8          N/A
MILK RIVER       N/A     91  43  18 S12G17      N/A
ONEFOUR          N/A     86  46  25 SE16G23     N/A
$$

REGIONAL REPORTS...SASKATCHEWAN

CITY           SKY/WX    TMP DP  RH WIND       PRES   REMARKS
SWIFT CURRENT  SUNNY     81  55  41 SE13G24   29.96F
REGINA         MOSUNNY   81  52  36 NW3       30.00F
SASKATOON      MOSUNNY   81  48  32 E6        29.99S
CYPRESS HILLS    N/A     79  48  34 SE14G20     N/A
VAL MARIE        N/A     82  48  30 E13G18      N/A
ROCKGLEN         N/A     79  50  36 N5          N/A
ASSINIBOIA       N/A     84  55  37 SE15G23     N/A
$$



USA.gov is the U.S. government's official web portal to all federal, state and local government web resources and services.